Weather Roundup
Issued by NWS

Home | Current Version | Previous Version | Text Only | Print | Product List | Glossary On
Versions: 1 2 3 4 5 6 7 8 9 10 11 12 13 14 15 16 17 18 19 20 21 22 23 24 25 26 27 28 29 30 31 32 33 34 35 36 37 38 39 40 41 42 43 44 45 46 47 48 49 50
000
NZUS93 KARX 232310
HRRWXR

CURRENT HOURLY OBSERVATIONS ACROSS
MUCH OF THE UPPER MISSISSIPPI VALLEY
NATIONAL WEATHER SERVICE LA CROSSE WI
500 PM CST THU FEB 23 2017


...SOUTHEAST MINNESOTA...


CITY           SKY/WX    TMP DP  RH WIND       PRES   REMARKS
ROCHESTER      CLOUDY    36  29  75 N15       29.81R WCI  27
ROCHESTER/MAYO CLOUDY    37  29  73 N15G21    29.81R WCI  28
WINONA         CLOUDY    41  30  65 NE9       29.83R
AUSTIN         CLOUDY    37  30  75 NE12      29.79F WCI  30
ALBERT LEA     FLURRIES  36  30  80 N16G23    29.80S WCI  26
DODGE CENTER   FAIR      36  28  75 N17G25    29.79F WCI  25
PRESTON        CLOUDY    38  29  72 NE14      29.79F WCI  29
OWATONNA       MOCLDY    36  27  69 N17G25    29.82F WCI  25
FARIBAULT      CLOUDY    34  27  75 N13G18    29.86F WCI  25
$$

...ELSEWHERE IN MINNESOTA...


CITY           SKY/WX    TMP DP  RH WIND       PRES   REMARKS
MINNEAPOLIS    CLOUDY    32  22  66 N13       29.92R WCI  22
INTNL FALLS    FAIR      25  10  53 W12       29.99R WCI  14
DULUTH         MOCLDY    27  22  81 NW10      29.94R WCI  17
RED WING       CLOUDY    37  25  60 N5        29.88R WCI  34
REDWOOD FALLS  CLOUDY    31  22  69 N10G18    29.90F WCI  22
MANKATO        FLURRIES  32  25  75 N17       29.87  WCI  21
WORTHINGTON    LGT SNOW  29  27  92 N18G28    29.80F FOG     WCI  16
FAIRMONT       FLURRIES  33  28  81 N18       29.82R WCI  22
$$

...SOUTHWEST WISCONSIN...


CITY           SKY/WX    TMP DP  RH WIND       PRES   REMARKS
LA CROSSE      MOCLDY    45  30  55 N13G18    29.81R
PRAIRIE DU CHI DRIZZLE   45  32  62 NE7       29.75F
BOSCOBEL       CLOUDY    46  33  60 E9G16     29.77F
LONE ROCK      CLOUDY    44  34  67 E14       29.79S
PLATTEVILLE    CLOUDY    42  40  95 E13G18    29.75R
FORT MC COY    CLOUDY    43  31  62 NE8       29.82S
CAMP DOUGLAS   FAIR      44  29  57 NE6       29.81S
MAUSTON-NEW LI CLOUDY    44  32  62 NE6       29.80S
VIROQUA        CLOUDY    42  32  67 NE8       29.78S
WIS DELLS      MOCLDY    40  32  73 E10       29.80S WCI  34
$$

...ELSEWHERE IN WISCONSIN...


CITY           SKY/WX    TMP DP  RH WIND       PRES   REMARKS
MILWAUKEE      LGT RAIN  37  31  78 NE17G29   29.83F WCI  27
MADISON        LGT RAIN  40  33  76 NE12      29.80S WCI  33
GREEN BAY      FAIR      41  30  65 N9        29.88R
EAU CLAIRE     CLOUDY    38  25  59 N9        29.86S WCI  31
BLACK RVR FLS  CLOUDY    42  27  55 NE10      29.82F
MEDFORD        MOCLDY    37  26  64 N8        29.84S WCI  30
WAUSAU         CLOUDY    40  23  50 NE5       29.83S
WIS RAPIDS     CLOUDY    43  26  51 NE8       29.85R
MARSHFIELD     CLOUDY    39  25  57 NE8       29.83R WCI  33
RICE LAKE      FAIR      34  26  71 N8        29.90S WCI  27
$$

...NORTHEAST IOWA...


CITY           SKY/WX    TMP DP  RH WIND       PRES   REMARKS
WATERLOO       CLOUDY    42  37  82 NE9       29.69F
DUBUQUE        CLOUDY    41  38  89 NE17      29.69F
DECORAH        CLOUDY    43  32  65 NE12      29.75S
MASON CITY     CLOUDY    37  33  85 NE16G25   29.77S WCI  28
CHARLES CITY   CLOUDY    41  36  81 NE20      29.73F
OELWEIN        CLOUDY    43  37  81 NE15      29.71S
$$

...ELSEWHERE IN IOWA...


CITY           SKY/WX    TMP DP  RH WIND       PRES   REMARKS
DES MOINES     CLOUDY    46  38  73 NE18G26   29.62S
IOWA CITY      LGT RAIN  46  40  79 NE15G25   29.65R
FORT DODGE     CLOUDY    36  30  80 N16G26    29.71F WCI  26
MARSHALLTOWN   LGT RAIN  42  38  85 NE16      29.66R
CEDAR RAPIDS   LGT RAIN  43  40  89 NE20G25   29.64S
$$

...NORTHERN ILLINOIS...


CITY           SKY/WX    TMP DP  RH WIND       PRES   REMARKS
CHICAGO-OHARE  LGT RAIN  39  34  82 E12       29.83R WCI  32
CHICAGO-MIDWAY LGT RAIN  39  34  82 NE17      29.81R WCI  30
MOLINE         CLOUDY    50  44  80 E18G25    29.63F
ROCKFORD       LGT RAIN  40  35  83 E13       29.79R WCI  32
PEORIA         CLOUDY    51  47  86 E16       29.65F
$$

NOTE: "FAIR" INDICATES FEW OR NO CLOUDS BELOW 12,000 FEET WITH NO
SIGNIFICANT WEATHER AND/OR OBSTRUCTIONS TO VISIBILITY. WIND
SPEEDS ARE IN MILES-PER-HOUR.




USA.gov is the U.S. government's official web portal to all federal, state and local government web resources and services.